MJONE EGCC-EHAM

Flight info

Callsign MJONE
Flight time N/A
Altitude 33000
Route SONEX L975 DESIG L603 LAMSO
Aircraft PC24/M-SBDGIRWY/LB2

Departure

Time 2026-05-04 16:26
Airport Manchester Airport (EGCC)

Arrival

Time N/A
Airport Amsterdam Airport Schiphol (EHAM)
Time Latitude Longitude Altitude Speed Heading
2026-05-04 16:04 53.35590 -2.28132 232 ft 0 kts 167°
2026-05-04 16:12 53.35564 -2.28129 232 ft 4 kts 182°
2026-05-04 16:12 53.35474 -2.28136 230 ft 3 kts 202°
2026-05-04 16:13 53.35449 -2.28151 230 ft 0 kts 195°
2026-05-04 16:17 53.35431 -2.28157 233 ft 14 kts 188°
2026-05-04 16:18 53.35445 -2.27939 233 ft 17 kts 48°
2026-05-04 16:18 53.35468 -2.27772 235 ft 15 kts 60°
2026-05-04 16:19 53.35560 -2.27441 241 ft 0 kts 140°
2026-05-04 16:20 53.35439 -2.27278 243 ft 19 kts 140°
2026-05-04 16:20 53.35187 -2.27239 227 ft 17 kts 192°
2026-05-04 16:21 53.35173 -2.27243 227 ft 0 kts 190°
2026-05-04 16:22 53.35141 -2.27252 225 ft 0 kts 191°
2026-05-04 16:23 53.35026 -2.27286 221 ft 0 kts 223°
2026-05-04 16:24 53.35024 -2.27290 221 ft 0 kts 227°
2026-05-04 16:26 53.34931 -2.27480 220 ft 61 kts 231°
2026-05-04 16:26 53.33182 -2.31127 1535 ft 177 kts 231°
2026-05-04 16:27 53.31680 -2.34975 2909 ft 221 kts 261°
2026-05-04 16:28 53.34619 -2.40951 5179 ft 270 kts 342°
2026-05-04 16:28 53.40116 -2.43782 7941 ft 272 kts 341°
2026-05-04 16:29 53.43805 -2.45565 9134 ft 280 kts 356°